Time,TemperatureF,DewpointF,PressureIn,WindDirection,WindDirectionDegrees,WindSpeedMPH,WindSpeedGustMPH,Humidity,HourlyPrecipIn,Conditions,Clouds,dailyrainin,SoftwareType,DateUTC
2013-03-01 00:00:00,35.0,33.0,29.65,WSW,247,2.0,7.0,95,0.00,,,0.00,Rainwise IP-100,2013-03-01 05:00:00,
2013-03-01 00:05:00,35.0,33.0,29.65,SW,225,3.0,5.0,95,0.00,,,0.00,Rainwise IP-100,2013-03-01 05:05:00,
2013-03-01 00:10:00,35.0,33.0,29.65,WSW,247,1.0,5.0,95,0.00,,,0.00,Rainwise IP-100,2013-03-01 05:10:00,
2013-03-01 00:15:00,35.0,33.0,29.65,SSW,202,0.0,4.0,95,0.00,,,0.00,Rainwise IP-100,2013-03-01 05:15:00,
2013-03-01 00:20:00,34.0,33.0,29.65,SW,225,2.0,6.0,96,0.00,,,0.00,Rainwise IP-100,2013-03-01 05:20:00,
2013-03-01 00:25:00,34.0,33.0,29.66,SW,225,0.0,4.0,96,0.00,,,0.00,Rainwise IP-100,2013-03-01 05:25:00,
2013-03-01 00:30:00,34.0,33.0,29.66,SW,225,0.0,5.0,96,0.00,,,0.00,Rainwise IP-100,2013-03-01 05:30:00,
2013-03-01 00:35:00,34.0,33.0,29.66,WSW,247,1.0,7.0,96,0.00,,,0.00,Rainwise IP-100,2013-03-01 05:35:00,
2013-03-01 00:40:00,34.0,33.0,29.66,WSW,247,1.0,6.0,96,0.00,,,0.00,Rainwise IP-100,2013-03-01 05:40:00,
2013-03-01 00:45:00,34.0,33.0,29.66,WSW,247,4.0,6.0,96,0.00,,,0.00,Rainwise IP-100,2013-03-01 05:45:00,
2013-03-01 00:50:00,34.0,33.0,29.66,WSW,247,2.0,9.0,96,0.00,,,0.00,Rainwise IP-100,2013-03-01 05:50:00,
2013-03-01 00:55:00,34.0,33.0,29.66,WSW,247,3.0,6.0,96,0.00,,,0.00,Rainwise IP-100,2013-03-01 05:55:00,
2013-03-01 01:00:00,34.0,33.0,29.66,SSW,202,0.0,7.0,96,0.00,,,0.00,Rainwise IP-100,2013-03-01 06:00:00,
2013-03-01 01:05:00,34.0,33.0,29.66,SW,225,3.0,7.0,96,0.00,,,0.00,Rainwise IP-100,2013-03-01 06:05:00,
2013-03-01 01:10:00,34.0,33.0,29.66,SW,225,0.0,6.0,96,0.00,,,0.00,Rainwise IP-100,2013-03-01 06:10:00,
2013-03-01 01:15:00,34.0,33.0,29.66,SSW,202,0.0,6.0,96,0.00,,,0.00,Rainwise IP-100,2013-03-01 06:15:00,
2013-03-01 01:20:00,33.0,32.0,29.66,SSW,202,3.0,6.0,96,0.00,,,0.00,Rainwise IP-100,2013-03-01 06:20:00,
2013-03-01 01:25:00,33.0,32.0,29.67,SSW,202,2.0,7.0,96,0.00,,,0.00,Rainwise IP-100,2013-03-01 06:25:00,
2013-03-01 01:30:00,33.0,32.0,29.67,SSW,202,1.0,4.0,96,0.00,,,0.00,Rainwise IP-100,2013-03-01 06:30:00,
2013-03-01 01:35:00,33.0,32.0,29.67,WSW,247,1.0,5.0,96,0.00,,,0.00,Rainwise IP-100,2013-03-01 06:35:00,
2013-03-01 01:40:00,33.0,32.0,29.67,SSW,202,0.0,6.0,96,0.00,,,0.00,Rainwise IP-100,2013-03-01 06:40:00,
2013-03-01 01:45:00,33.0,32.0,29.67,SSW,202,2.0,4.0,96,0.00,,,0.00,Rainwise IP-100,2013-03-01 06:45:00,
2013-03-01 01:50:00,33.0,32.0,29.67,SSW,202,4.0,6.0,96,0.00,,,0.00,Rainwise IP-100,2013-03-01 06:50:00,
2013-03-01 01:55:00,33.0,32.0,29.67,SW,225,0.0,5.0,96,0.00,,,0.00,Rainwise IP-100,2013-03-01 06:55:00,
2013-03-01 02:00:00,33.0,32.0,29.67,SW,225,0.0,6.0,96,0.00,,,0.00,Rainwise IP-100,2013-03-01 07:00:00,
2013-03-01 02:05:00,33.0,32.0,29.67,WSW,247,1.0,7.0,96,0.00,,,0.00,Rainwise IP-100,2013-03-01 07:05:00,
2013-03-01 02:10:00,33.0,32.0,29.67,SW,225,3.0,7.0,96,0.00,,,0.00,Rainwise IP-100,2013-03-01 07:10:00,
2013-03-01 02:11:00,34.0,33.0,29.67,SW,225,3.0,9.0,96,0.00,,,0.00,Rainwise IP-100,2013-03-01 07:11:00,
2013-03-01 02:14:00,33.0,32.0,29.67,SSW,202,1.0,9.0,96,0.00,,,0.00,Rainwise IP-100,2013-03-01 07:14:00,
2013-03-01 02:19:00,34.0,33.0,29.67,WSW,247,0.0,4.0,96,0.00,,,0.00,Rainwise IP-100,2013-03-01 07:19:00,
2013-03-01 02:24:00,33.0,32.0,29.67,WSW,247,2.0,3.0,96,0.00,,,0.00,Rainwise IP-100,2013-03-01 07:24:00,
2013-03-01 02:29:00,34.0,33.0,29.67,WSW,247,7.0,7.0,96,0.00,,,0.00,Rainwise IP-100,2013-03-01 07:29:00,
2013-03-01 02:34:00,34.0,33.0,29.67,WSW,247,0.0,7.0,96,0.00,,,0.00,Rainwise IP-100,2013-03-01 07:34:00,
2013-03-01 02:39:00,33.0,32.0,29.67,WSW,247,1.0,2.0,96,0.00,,,0.00,Rainwise IP-100,2013-03-01 07:39:00,
2013-03-01 02:44:00,33.0,32.0,29.68,SSW,202,1.0,6.0,96,0.00,,,0.00,Rainwise IP-100,2013-03-01 07:44:00,
2013-03-01 02:49:00,33.0,32.0,29.68,SSW,202,3.0,4.0,96,0.00,,,0.00,Rainwise IP-100,2013-03-01 07:49:00,
2013-03-01 02:54:00,32.0,31.0,29.68,SSW,202,3.0,5.0,96,0.00,,,0.00,Rainwise IP-100,2013-03-01 07:54:00,
2013-03-01 02:59:00,32.0,31.0,29.68,SSW,202,1.0,4.0,96,0.00,,,0.00,Rainwise IP-100,2013-03-01 07:59:00,
2013-03-01 03:04:00,32.0,31.0,29.69,SSW,202,2.0,3.0,96,0.00,,,0.00,Rainwise IP-100,2013-03-01 08:04:00,
2013-03-01 03:09:00,32.0,31.0,29.69,SSW,202,4.0,5.0,96,0.00,,,0.00,Rainwise IP-100,2013-03-01 08:09:00,
2013-03-01 03:14:00,32.0,31.0,29.69,SSW,202,2.0,5.0,96,0.00,,,0.00,Rainwise IP-100,2013-03-01 08:14:00,
2013-03-01 03:19:00,31.0,29.0,29.69,SSW,202,3.0,5.0,96,0.00,,,0.00,Rainwise IP-100,2013-03-01 08:19:00,
2013-03-01 03:24:00,31.0,29.0,29.70,SSW,202,3.0,4.0,96,0.00,,,0.00,Rainwise IP-100,2013-03-01 08:24:00,
2013-03-01 03:29:00,31.0,29.0,29.70,SSW,202,1.0,4.0,96,0.00,,,0.00,Rainwise IP-100,2013-03-01 08:29:00,
2013-03-01 03:34:00,31.0,29.0,29.70,SSW,202,0.0,4.0,96,0.00,,,0.00,Rainwise IP-100,2013-03-01 08:34:00,
2013-03-01 03:39:00,31.0,29.0,29.70,SSW,202,1.0,2.0,96,0.00,,,0.00,Rainwise IP-100,2013-03-01 08:39:00,
2013-03-01 03:44:00,31.0,29.0,29.70,SSW,202,1.0,4.0,96,0.00,,,0.00,Rainwise IP-100,2013-03-01 08:44:00,
2013-03-01 03:49:00,31.0,29.0,29.70,WSW,247,0.0,3.0,96,0.00,,,0.00,Rainwise IP-100,2013-03-01 08:49:00,
2013-03-01 03:54:00,31.0,29.0,29.70,SSW,202,0.0,4.0,96,0.00,,,0.00,Rainwise IP-100,2013-03-01 08:54:00,
2013-03-01 03:59:00,31.0,29.0,29.70,SSW,202,3.0,4.0,96,0.00,,,0.00,Rainwise IP-100,2013-03-01 08:59:00,
2013-03-01 04:04:00,31.0,29.0,29.70,SSW,202,2.0,4.0,96,0.00,,,0.00,Rainwise IP-100,2013-03-01 09:04:00,
2013-03-01 04:09:00,31.0,29.0,29.70,SSW,202,1.0,4.0,96,0.00,,,0.00,Rainwise IP-100,2013-03-01 09:09:00,
2013-03-01 04:14:00,31.0,29.0,29.70,WSW,247,0.0,4.0,96,0.00,,,0.00,Rainwise IP-100,2013-03-01 09:14:00,
2013-03-01 04:19:00,31.0,29.0,29.70,SSW,202,1.0,3.0,96,0.00,,,0.00,Rainwise IP-100,2013-03-01 09:19:00,
2013-03-01 04:24:00,31.0,29.0,29.70,SSW,202,2.0,4.0,96,0.00,,,0.00,Rainwise IP-100,2013-03-01 09:24:00,
2013-03-01 04:29:00,31.0,29.0,29.70,SSW,202,3.0,4.0,96,0.00,,,0.00,Rainwise IP-100,2013-03-01 09:29:00,
2013-03-01 04:34:00,31.0,29.0,29.70,SW,225,2.0,5.0,95,0.00,,,0.00,Rainwise IP-100,2013-03-01 09:34:00,
2013-03-01 04:39:00,31.0,29.0,29.70,SSW,202,3.0,4.0,95,0.00,,,0.00,Rainwise IP-100,2013-03-01 09:39:00,
2013-03-01 04:44:00,31.0,29.0,29.71,SSW,202,3.0,4.0,95,0.00,,,0.00,Rainwise IP-100,2013-03-01 09:44:00,
2013-03-01 04:49:00,31.0,29.0,29.71,SSW,202,2.0,4.0,95,0.00,,,0.00,Rainwise IP-100,2013-03-01 09:49:00,
2013-03-01 04:54:00,31.0,29.0,29.71,SSW,202,3.0,3.0,96,0.00,,,0.00,Rainwise IP-100,2013-03-01 09:54:00,
2013-03-01 04:59:00,30.0,29.0,29.71,SSW,202,2.0,4.0,97,0.00,,,0.00,Rainwise IP-100,2013-03-01 09:59:00,
2013-03-01 05:04:00,31.0,29.0,29.71,SSW,202,2.0,3.0,96,0.00,,,0.00,Rainwise IP-100,2013-03-01 10:04:00,
2013-03-01 05:09:00,31.0,29.0,29.71,SSW,202,1.0,3.0,95,0.00,,,0.00,Rainwise IP-100,2013-03-01 10:09:00,
2013-03-01 05:14:00,31.0,29.0,29.71,SSW,202,3.0,4.0,95,0.00,,,0.00,Rainwise IP-100,2013-03-01 10:14:00,
2013-03-01 05:19:00,31.0,29.0,29.71,SSW,202,2.0,4.0,95,0.00,,,0.00,Rainwise IP-100,2013-03-01 10:19:00,
2013-03-01 05:24:00,31.0,29.0,29.72,SSW,202,3.0,5.0,95,0.00,,,0.00,Rainwise IP-100,2013-03-01 10:24:00,
2013-03-01 05:29:00,31.0,29.0,29.72,SSW,202,4.0,4.0,95,0.00,,,0.00,Rainwise IP-100,2013-03-01 10:29:00,
2013-03-01 05:34:00,31.0,29.0,29.71,SSW,202,3.0,4.0,95,0.00,,,0.00,Rainwise IP-100,2013-03-01 10:34:00,
2013-03-01 05:39:00,31.0,29.0,29.71,SSW,202,4.0,5.0,95,0.00,,,0.00,Rainwise IP-100,2013-03-01 10:39:00,
2013-03-01 05:44:00,31.0,29.0,29.72,SSW,202,3.0,5.0,95,0.00,,,0.00,Rainwise IP-100,2013-03-01 10:44:00,
2013-03-01 05:49:00,31.0,29.0,29.72,SW,225,3.0,4.0,95,0.00,,,0.00,Rainwise IP-100,2013-03-01 10:49:00,
2013-03-01 05:54:00,31.0,29.0,29.72,SW,225,3.0,4.0,95,0.00,,,0.00,Rainwise IP-100,2013-03-01 10:54:00,
2013-03-01 05:59:00,31.0,29.0,29.72,SSW,202,4.0,5.0,95,0.00,,,0.00,Rainwise IP-100,2013-03-01 10:59:00,
2013-03-01 06:04:00,31.0,29.0,29.72,SSW,202,3.0,4.0,95,0.00,,,0.00,Rainwise IP-100,2013-03-01 11:04:00,
2013-03-01 06:09:00,31.0,29.0,29.72,SSW,202,4.0,4.0,95,0.00,,,0.00,Rainwise IP-100,2013-03-01 11:09:00,
2013-03-01 06:14:00,32.0,31.0,29.72,SSW,202,3.0,4.0,95,0.00,,,0.00,Rainwise IP-100,2013-03-01 11:14:00,
2013-03-01 06:19:00,32.0,31.0,29.72,SSW,202,3.0,4.0,95,0.00,,,0.00,Rainwise IP-100,2013-03-01 11:19:00,
2013-03-01 06:24:00,32.0,31.0,29.72,SSW,202,2.0,4.0,95,0.00,,,0.00,Rainwise IP-100,2013-03-01 11:24:00,
2013-03-01 06:29:00,33.0,32.0,29.72,SSW,202,2.0,4.0,94,0.00,,,0.00,Rainwise IP-100,2013-03-01 11:29:00,
2013-03-01 06:34:00,33.0,32.0,29.71,SSW,202,2.0,4.0,94,0.00,,,0.00,Rainwise IP-100,2013-03-01 11:34:00,
2013-03-01 06:39:00,34.0,33.0,29.71,SSW,202,1.0,3.0,94,0.00,,,0.00,Rainwise IP-100,2013-03-01 11:39:00,
2013-03-01 06:44:00,35.0,32.0,29.70,SSW,202,2.0,3.0,92,0.00,,,0.00,Rainwise IP-100,2013-03-01 11:44:00,
2013-03-01 06:49:00,33.0,32.0,29.70,SSW,202,4.0,4.0,94,0.00,,,0.00,Rainwise IP-100,2013-03-01 11:49:00,
2013-03-01 06:54:00,33.0,32.0,29.71,SSW,202,4.0,5.0,95,0.00,,,0.00,Rainwise IP-100,2013-03-01 11:54:00,
2013-03-01 06:55:00,33.0,32.0,29.71,SSW,202,4.0,5.0,95,0.00,,,0.00,Rainwise IP-100,2013-03-01 11:55:00,
2013-03-01 07:00:00,33.0,32.0,29.71,SSW,202,2.0,5.0,95,0.00,,,0.00,Rainwise IP-100,2013-03-01 12:00:00,
2013-03-01 07:05:00,33.0,32.0,29.72,SSW,202,2.0,3.0,96,0.00,,,0.00,Rainwise IP-100,2013-03-01 12:05:00,
2013-03-01 07:10:00,33.0,32.0,29.72,SW,225,2.0,3.0,96,0.00,,,0.00,Rainwise IP-100,2013-03-01 12:10:00,
2013-03-01 07:15:00,34.0,33.0,29.72,SW,225,1.0,3.0,95,0.00,,,0.00,Rainwise IP-100,2013-03-01 12:15:00,
2013-03-01 07:20:00,35.0,33.0,29.72,SW,225,0.0,6.0,93,0.00,,,0.00,Rainwise IP-100,2013-03-01 12:20:00,
2013-03-01 07:25:00,35.0,33.0,29.71,SW,225,1.0,6.0,95,0.00,,,0.00,Rainwise IP-100,2013-03-01 12:25:00,
2013-03-01 07:30:00,35.0,33.0,29.71,SW,225,1.0,3.0,95,0.00,,,0.00,Rainwise IP-100,2013-03-01 12:30:00,
2013-03-01 07:35:00,35.0,33.0,29.72,SW,225,0.0,3.0,95,0.00,,,0.00,Rainwise IP-100,2013-03-01 12:35:00,
2013-03-01 07:40:00,35.0,33.0,29.72,WSW,247,2.0,5.0,96,0.00,,,0.00,Rainwise IP-100,2013-03-01 12:40:00,
2013-03-01 07:45:00,35.0,33.0,29.73,WSW,247,6.0,7.0,96,0.00,,,0.00,Rainwise IP-100,2013-03-01 12:45:00,
2013-03-01 07:50:00,36.0,35.0,29.73,WSW,247,0.0,9.0,95,0.00,,,0.00,Rainwise IP-100,2013-03-01 12:50:00,
2013-03-01 07:55:00,37.0,36.0,29.72,SW,225,5.0,10.0,95,0.00,,,0.00,Rainwise IP-100,2013-03-01 12:55:00,
2013-03-01 08:00:00,38.0,36.0,29.72,WSW,247,4.0,12.0,92,0.00,,,0.00,Rainwise IP-100,2013-03-01 13:00:00,
2013-03-01 08:05:00,39.0,37.0,29.72,WSW,247,4.0,7.0,90,0.00,,,0.00,Rainwise IP-100,2013-03-01 13:05:00,
2013-03-01 08:10:00,39.0,37.0,29.72,SW,225,4.0,7.0,90,0.00,,,0.00,Rainwise IP-100,2013-03-01 13:10:00,
2013-03-01 08:15:00,40.0,37.0,29.71,WSW,247,8.0,10.0,87,0.00,,,0.00,Rainwise IP-100,2013-03-01 13:15:00,
2013-03-01 08:20:00,40.0,36.0,29.71,WSW,247,7.0,12.0,83,0.00,,,0.00,Rainwise IP-100,2013-03-01 13:20:00,
2013-03-01 08:25:00,40.0,37.0,29.72,WSW,247,5.0,13.0,86,0.00,,,0.00,Rainwise IP-100,2013-03-01 13:25:00,
2013-03-01 08:30:00,41.0,36.0,29.72,SW,225,6.0,9.0,82,0.00,,,0.00,Rainwise IP-100,2013-03-01 13:30:00,
2013-03-01 08:35:00,41.0,36.0,29.72,SW,225,3.0,9.0,80,0.00,,,0.00,Rainwise IP-100,2013-03-01 13:35:00,
2013-03-01 08:40:00,41.0,35.0,29.72,WSW,247,5.0,13.0,78,0.00,,,0.00,Rainwise IP-100,2013-03-01 13:40:00,
2013-03-01 08:45:00,42.0,35.0,29.71,WSW,247,6.0,9.0,75,0.00,,,0.00,Rainwise IP-100,2013-03-01 13:45:00,
2013-03-01 08:50:00,41.0,35.0,29.71,WSW,247,9.0,12.0,77,0.00,,,0.00,Rainwise IP-100,2013-03-01 13:50:00,
2013-03-01 08:55:00,40.0,35.0,29.72,WSW,247,7.0,12.0,80,0.00,,,0.00,Rainwise IP-100,2013-03-01 13:55:00,
2013-03-01 09:00:00,40.0,35.0,29.72,WSW,247,4.0,11.0,79,0.00,,,0.00,Rainwise IP-100,2013-03-01 14:00:00,
2013-03-01 09:05:00,40.0,35.0,29.72,WSW,247,2.0,12.0,80,0.00,,,0.00,Rainwise IP-100,2013-03-01 14:05:00,
2013-03-01 09:10:00,40.0,35.0,29.72,SSW,202,4.0,13.0,81,0.00,,,0.00,Rainwise IP-100,2013-03-01 14:10:00,
2013-03-01 09:15:00,40.0,35.0,29.73,SW,225,9.0,12.0,78,0.00,,,0.00,Rainwise IP-100,2013-03-01 14:15:00,
2013-03-01 09:20:00,40.0,35.0,29.73,SW,225,9.0,17.0,79,0.00,,,0.00,Rainwise IP-100,2013-03-01 14:20:00,
2013-03-01 09:25:00,40.0,35.0,29.73,WSW,247,9.0,10.0,80,0.00,,,0.00,Rainwise IP-100,2013-03-01 14:25:00,
2013-03-01 09:30:00,41.0,35.0,29.73,SW,225,6.0,15.0,78,0.00,,,0.00,Rainwise IP-100,2013-03-01 14:30:00,
2013-03-01 09:35:00,41.0,35.0,29.72,SW,225,10.0,19.0,75,0.00,,,0.00,Rainwise IP-100,2013-03-01 14:35:00,
2013-03-01 09:40:00,42.0,35.0,29.72,WSW,247,4.0,13.0,73,0.00,,,0.00,Rainwise IP-100,2013-03-01 14:40:00,
2013-03-01 09:45:00,42.0,33.0,29.72,WSW,247,9.0,17.0,69,0.00,,,0.00,Rainwise IP-100,2013-03-01 14:45:00,
2013-03-01 09:50:00,43.0,35.0,29.72,WSW,247,4.0,12.0,72,0.00,,,0.00,Rainwise IP-100,2013-03-01 14:50:00,
2013-03-01 09:55:00,42.0,33.0,29.71,WSW,247,9.0,12.0,70,0.00,,,0.00,Rainwise IP-100,2013-03-01 14:55:00,
2013-03-01 10:00:00,42.0,32.0,29.71,SW,225,9.0,19.0,68,0.00,,,0.00,Rainwise IP-100,2013-03-01 15:00:00,
2013-03-01 10:05:00,42.0,32.0,29.72,SW,225,5.0,18.0,66,0.00,,,0.00,Rainwise IP-100,2013-03-01 15:05:00,
2013-03-01 10:10:00,43.0,32.0,29.72,SW,225,7.0,12.0,63,0.00,,,0.00,Rainwise IP-100,2013-03-01 15:10:00,
2013-03-01 10:15:00,43.0,31.0,29.71,SW,225,12.0,12.0,60,0.00,,,0.00,Rainwise IP-100,2013-03-01 15:15:00,
2013-03-01 10:20:00,43.0,31.0,29.71,WSW,247,4.0,16.0,61,0.00,,,0.00,Rainwise IP-100,2013-03-01 15:20:00,
2013-03-01 10:25:00,43.0,29.0,29.72,WSW,247,11.0,18.0,58,0.00,,,0.00,Rainwise IP-100,2013-03-01 15:25:00,
2013-03-01 10:30:00,45.0,31.0,29.72,WSW,247,9.0,15.0,57,0.00,,,0.00,Rainwise IP-100,2013-03-01 15:30:00,
2013-03-01 10:35:00,44.0,29.0,29.70,WSW,247,7.0,12.0,56,0.00,,,0.00,Rainwise IP-100,2013-03-01 15:35:00,
2013-03-01 10:40:00,44.0,31.0,29.70,WSW,247,4.0,13.0,58,0.00,,,0.00,Rainwise IP-100,2013-03-01 15:40:00,
2013-03-01 10:45:00,44.0,31.0,29.70,WSW,247,2.0,12.0,59,0.00,,,0.00,Rainwise IP-100,2013-03-01 15:45:00,
2013-03-01 10:50:00,44.0,31.0,29.70,SW,225,2.0,17.0,59,0.00,,,0.00,Rainwise IP-100,2013-03-01 15:50:00,
2013-03-01 10:55:00,43.0,29.0,29.70,SW,225,8.0,14.0,56,0.00,,,0.00,Rainwise IP-100,2013-03-01 15:55:00,
2013-03-01 11:00:00,43.0,29.0,29.70,WSW,247,6.0,16.0,56,0.00,,,0.00,Rainwise IP-100,2013-03-01 16:00:00,
2013-03-01 11:05:00,43.0,28.0,29.71,WSW,247,9.0,16.0,54,0.00,,,0.00,Rainwise IP-100,2013-03-01 16:05:00,
2013-03-01 11:10:00,43.0,29.0,29.71,WSW,247,9.0,17.0,57,0.00,,,0.00,Rainwise IP-100,2013-03-01 16:10:00,
2013-03-01 11:15:00,44.0,31.0,29.71,WSW,247,2.0,10.0,58,0.00,,,0.00,Rainwise IP-100,2013-03-01 16:15:00,
2013-03-01 11:20:00,44.0,31.0,29.71,WSW,247,12.0,15.0,57,0.00,,,0.00,Rainwise IP-100,2013-03-01 16:20:00,
2013-03-01 11:25:00,44.0,31.0,29.71,WSW,247,7.0,16.0,57,0.00,,,0.00,Rainwise IP-100,2013-03-01 16:25:00,
2013-03-01 11:30:00,44.0,31.0,29.71,WSW,247,2.0,14.0,60,0.00,,,0.00,Rainwise IP-100,2013-03-01 16:30:00,
2013-03-01 11:35:00,43.0,29.0,29.71,WSW,247,10.0,19.0,57,0.00,,,0.00,Rainwise IP-100,2013-03-01 16:35:00,
2013-03-01 11:40:00,43.0,29.0,29.71,WSW,247,5.0,15.0,57,0.00,,,0.00,Rainwise IP-100,2013-03-01 16:40:00,
2013-03-01 11:45:00,44.0,31.0,29.72,WSW,247,4.0,13.0,60,0.00,,,0.00,Rainwise IP-100,2013-03-01 16:45:00,
2013-03-01 11:50:00,44.0,31.0,29.72,WSW,247,5.0,14.0,58,0.00,,,0.00,Rainwise IP-100,2013-03-01 16:50:00,
2013-03-01 11:55:00,44.0,31.0,29.71,WSW,247,6.0,13.0,60,0.00,,,0.00,Rainwise IP-100,2013-03-01 16:55:00,
2013-03-01 12:00:00,45.0,32.0,29.71,SW,225,11.0,11.0,61,0.00,,,0.00,Rainwise IP-100,2013-03-01 17:00:00,
2013-03-01 12:05:00,44.0,31.0,29.70,WSW,247,6.0,12.0,58,0.00,,,0.00,Rainwise IP-100,2013-03-01 17:05:00,
2013-03-01 12:10:00,44.0,31.0,29.70,WSW,247,3.0,11.0,60,0.00,,,0.00,Rainwise IP-100,2013-03-01 17:10:00,
2013-03-01 12:15:00,45.0,32.0,29.71,SW,225,7.0,9.0,61,0.00,,,0.00,Rainwise IP-100,2013-03-01 17:15:00,
2013-03-01 12:20:00,45.0,29.0,29.71,WSW,247,9.0,15.0,52,0.00,,,0.00,Rainwise IP-100,2013-03-01 17:20:00,
2013-03-01 12:25:00,45.0,29.0,29.70,WSW,247,7.0,15.0,53,0.00,,,0.00,Rainwise IP-100,2013-03-01 17:25:00,
2013-03-01 12:30:00,44.0,29.0,29.70,SW,225,4.0,17.0,55,0.00,,,0.00,Rainwise IP-100,2013-03-01 17:30:00,
2013-03-01 12:35:00,44.0,31.0,29.70,WSW,247,5.0,12.0,57,0.00,,,0.00,Rainwise IP-100,2013-03-01 17:35:00,
2013-03-01 12:40:00,44.0,29.0,29.70,WSW,247,4.0,10.0,56,0.00,,,0.00,Rainwise IP-100,2013-03-01 17:40:00,
2013-03-01 12:45:00,44.0,29.0,29.70,WSW,247,14.0,17.0,55,0.00,,,0.00,Rainwise IP-100,2013-03-01 17:45:00,
2013-03-01 12:50:00,44.0,29.0,29.70,SSW,202,5.0,16.0,55,0.00,,,0.00,Rainwise IP-100,2013-03-01 17:50:00,
2013-03-01 12:55:00,44.0,29.0,29.70,WSW,247,3.0,12.0,56,0.00,,,0.00,Rainwise IP-100,2013-03-01 17:55:00,
2013-03-01 13:00:00,43.0,28.0,29.70,WSW,247,10.0,16.0,54,0.00,,,0.00,Rainwise IP-100,2013-03-01 18:00:00,
2013-03-01 13:05:00,44.0,29.0,29.70,WSW,247,8.0,15.0,56,0.00,,,0.00,Rainwise IP-100,2013-03-01 18:05:00,
2013-03-01 13:10:00,44.0,31.0,29.70,WSW,247,3.0,13.0,57,0.00,,,0.00,Rainwise IP-100,2013-03-01 18:10:00,
2013-03-01 13:15:00,44.0,29.0,29.69,WSW,247,7.0,12.0,56,0.00,,,0.00,Rainwise IP-100,2013-03-01 18:15:00,
2013-03-01 13:20:00,44.0,29.0,29.69,WSW,247,9.0,17.0,56,0.00,,,0.00,Rainwise IP-100,2013-03-01 18:20:00,
2013-03-01 13:25:00,44.0,31.0,29.69,WSW,247,3.0,10.0,60,0.00,,,0.00,Rainwise IP-100,2013-03-01 18:25:00,
2013-03-01 13:30:00,43.0,29.0,29.69,WSW,247,7.0,14.0,57,0.00,,,0.00,Rainwise IP-100,2013-03-01 18:30:00,
2013-03-01 13:35:00,45.0,31.0,29.70,SW,225,6.0,11.0,56,0.00,,,0.00,Rainwise IP-100,2013-03-01 18:35:00,
2013-03-01 13:40:00,45.0,29.0,29.70,WSW,247,9.0,13.0,53,0.00,,,0.00,Rainwise IP-100,2013-03-01 18:40:00,
2013-03-01 13:45:00,46.0,29.0,29.68,WSW,247,7.0,14.0,53,0.00,,,0.00,Rainwise IP-100,2013-03-01 18:45:00,
2013-03-01 13:50:00,46.0,29.0,29.68,WSW,247,4.0,13.0,53,0.00,,,0.00,Rainwise IP-100,2013-03-01 18:50:00,
2013-03-01 13:55:00,46.0,29.0,29.68,WSW,247,7.0,12.0,53,0.00,,,0.00,Rainwise IP-100,2013-03-01 18:55:00,
2013-03-01 14:00:00,46.0,31.0,29.68,WSW,247,3.0,18.0,54,0.00,,,0.00,Rainwise IP-100,2013-03-01 19:00:00,
2013-03-01 14:05:00,45.0,29.0,29.68,WSW,247,11.0,15.0,54,0.00,,,0.00,Rainwise IP-100,2013-03-01 19:05:00,
2013-03-01 14:10:00,45.0,31.0,29.68,SSW,202,5.0,15.0,57,0.00,,,0.00,Rainwise IP-100,2013-03-01 19:10:00,
2013-03-01 14:15:00,44.0,31.0,29.69,WSW,247,7.0,13.0,57,0.00,,,0.00,Rainwise IP-100,2013-03-01 19:15:00,
2013-03-01 14:20:00,44.0,31.0,29.69,SSW,202,1.0,13.0,58,0.00,,,0.00,Rainwise IP-100,2013-03-01 19:20:00,
2013-03-01 14:25:00,44.0,31.0,29.69,WSW,247,6.0,9.0,59,0.00,,,0.00,Rainwise IP-100,2013-03-01 19:25:00,
2013-03-01 14:30:00,44.0,31.0,29.69,WSW,247,6.0,15.0,60,0.00,,,0.00,Rainwise IP-100,2013-03-01 19:30:00,
2013-03-01 14:35:00,43.0,31.0,29.70,WSW,247,6.0,18.0,61,0.00,,,0.00,Rainwise IP-100,2013-03-01 19:35:00,
2013-03-01 14:40:00,44.0,32.0,29.70,WSW,247,9.0,13.0,63,0.00,,,0.00,Rainwise IP-100,2013-03-01 19:40:00,
2013-03-01 14:45:00,43.0,31.0,29.70,SW,225,9.0,17.0,61,0.00,,,0.00,Rainwise IP-100,2013-03-01 19:45:00,
2013-03-01 14:50:00,43.0,31.0,29.70,WSW,247,6.0,14.0,61,0.00,,,0.00,Rainwise IP-100,2013-03-01 19:50:00,
2013-03-01 14:55:00,43.0,31.0,29.71,WSW,247,6.0,16.0,61,0.00,,,0.00,Rainwise IP-100,2013-03-01 19:55:00,
2013-03-01 15:00:00,43.0,31.0,29.71,WSW,247,7.0,13.0,62,0.00,,,0.00,Rainwise IP-100,2013-03-01 20:00:00,
2013-03-01 15:05:00,43.0,31.0,29.71,WSW,247,2.0,15.0,62,0.00,,,0.00,Rainwise IP-100,2013-03-01 20:05:00,
2013-03-01 15:10:00,43.0,32.0,29.71,WSW,247,3.0,9.0,63,0.00,,,0.00,Rainwise IP-100,2013-03-01 20:10:00,
2013-03-01 15:15:00,43.0,31.0,29.71,WSW,247,5.0,11.0,61,0.00,,,0.00,Rainwise IP-100,2013-03-01 20:15:00,
2013-03-01 15:20:00,43.0,31.0,29.71,WSW,247,6.0,11.0,61,0.00,,,0.00,Rainwise IP-100,2013-03-01 20:20:00,
2013-03-01 15:25:00,43.0,31.0,29.71,WSW,247,7.0,15.0,61,0.00,,,0.00,Rainwise IP-100,2013-03-01 20:25:00,
2013-03-01 15:30:00,43.0,32.0,29.71,WSW,247,6.0,15.0,66,0.00,,,0.00,Rainwise IP-100,2013-03-01 20:30:00,
2013-03-01 15:35:00,44.0,32.0,29.70,WSW,247,10.0,10.0,62,0.00,,,0.00,Rainwise IP-100,2013-03-01 20:35:00,
2013-03-01 15:40:00,43.0,31.0,29.70,WSW,247,8.0,15.0,61,0.00,,,0.00,Rainwise IP-100,2013-03-01 20:40:00,
2013-03-01 15:45:00,43.0,31.0,29.71,WSW,247,4.0,17.0,61,0.00,,,0.00,Rainwise IP-100,2013-03-01 20:45:00,
2013-03-01 15:50:00,43.0,31.0,29.71,SW,225,6.0,13.0,61,0.00,,,0.00,Rainwise IP-100,2013-03-01 20:50:00,
2013-03-01 15:55:00,43.0,31.0,29.71,SW,225,2.0,12.0,62,0.00,,,0.00,Rainwise IP-100,2013-03-01 20:55:00,
2013-03-01 16:00:00,43.0,32.0,29.71,WSW,247,9.0,15.0,64,0.00,,,0.00,Rainwise IP-100,2013-03-01 21:00:00,
2013-03-01 16:06:00,42.0,31.0,29.71,WSW,247,6.0,12.0,63,0.00,,,0.00,Rainwise IP-100,2013-03-01 21:06:00,
2013-03-01 16:11:00,42.0,31.0,29.71,WSW,247,6.0,15.0,64,0.00,,,0.00,Rainwise IP-100,2013-03-01 21:11:00,
2013-03-01 16:16:00,42.0,32.0,29.72,WSW,247,1.0,13.0,65,0.00,,,0.00,Rainwise IP-100,2013-03-01 21:16:00,
2013-03-01 16:21:00,42.0,32.0,29.72,SSW,202,3.0,8.0,66,0.00,,,0.00,Rainwise IP-100,2013-03-01 21:21:00,
2013-03-01 16:26:00,42.0,32.0,29.72,SSW,202,4.0,10.0,65,0.00,,,0.00,Rainwise IP-100,2013-03-01 21:26:00,
2013-03-01 16:31:00,42.0,32.0,29.72,WSW,247,1.0,7.0,65,0.00,,,0.00,Rainwise IP-100,2013-03-01 21:31:00,
2013-03-01 16:36:00,42.0,32.0,29.72,WSW,247,5.0,9.0,65,0.00,,,0.00,Rainwise IP-100,2013-03-01 21:36:00,
2013-03-01 16:41:00,42.0,32.0,29.72,SW,225,4.0,9.0,65,0.00,,,0.00,Rainwise IP-100,2013-03-01 21:41:00,
2013-03-01 16:46:00,42.0,32.0,29.72,SW,225,2.0,10.0,66,0.00,,,0.00,Rainwise IP-100,2013-03-01 21:46:00,
2013-03-01 16:51:00,42.0,32.0,29.72,WSW,247,2.0,10.0,68,0.00,,,0.00,Rainwise IP-100,2013-03-01 21:51:00,
2013-03-01 16:56:00,42.0,32.0,29.72,SW,225,10.0,12.0,68,0.00,,,0.00,Rainwise IP-100,2013-03-01 21:56:00,
2013-03-01 17:01:00,42.0,32.0,29.72,SW,225,5.0,12.0,68,0.00,,,0.00,Rainwise IP-100,2013-03-01 22:01:00,
2013-03-01 17:06:00,42.0,33.0,29.73,SW,225,6.0,12.0,70,0.00,,,0.00,Rainwise IP-100,2013-03-01 22:06:00,
2013-03-01 17:11:00,41.0,32.0,29.73,SW,225,10.0,16.0,69,0.00,,,0.00,Rainwise IP-100,2013-03-01 22:11:00,
2013-03-01 17:16:00,41.0,32.0,29.74,SW,225,6.0,10.0,71,0.00,,,0.00,Rainwise IP-100,2013-03-01 22:16:00,
2013-03-01 17:21:00,41.0,33.0,29.74,SW,225,2.0,12.0,72,0.00,,,0.00,Rainwise IP-100,2013-03-01 22:21:00,
2013-03-01 17:26:00,41.0,33.0,29.74,WSW,247,7.0,12.0,73,0.00,,,0.00,Rainwise IP-100,2013-03-01 22:26:00,
2013-03-01 17:31:00,41.0,35.0,29.74,WSW,247,1.0,12.0,75,0.00,,,0.00,Rainwise IP-100,2013-03-01 22:31:00,
2013-03-01 17:36:00,41.0,35.0,29.75,WSW,247,2.0,10.0,76,0.00,,,0.00,Rainwise IP-100,2013-03-01 22:36:00,
2013-03-01 17:41:00,40.0,33.0,29.75,SW,225,5.0,14.0,75,0.00,,,0.00,Rainwise IP-100,2013-03-01 22:41:00,
2013-03-01 17:46:00,40.0,33.0,29.75,SW,225,7.0,13.0,75,0.00,,,0.00,Rainwise IP-100,2013-03-01 22:46:00,
2013-03-01 17:51:00,40.0,33.0,29.75,SW,225,7.0,12.0,75,0.00,,,0.00,Rainwise IP-100,2013-03-01 22:51:00,
2013-03-01 17:56:00,40.0,33.0,29.76,SW,225,6.0,15.0,77,0.00,,,0.00,Rainwise IP-100,2013-03-01 22:56:00,
2013-03-01 18:01:00,40.0,35.0,29.76,SW,225,6.0,14.0,78,0.00,,,0.00,Rainwise IP-100,2013-03-01 23:01:00,
2013-03-01 18:06:00,40.0,35.0,29.76,SW,225,5.0,15.0,78,0.00,,,0.00,Rainwise IP-100,2013-03-01 23:06:00,
2013-03-01 18:11:00,40.0,35.0,29.76,SW,225,4.0,12.0,79,0.00,,,0.00,Rainwise IP-100,2013-03-01 23:11:00,
2013-03-01 18:16:00,40.0,35.0,29.76,WSW,247,6.0,13.0,80,0.00,,,0.00,Rainwise IP-100,2013-03-01 23:16:00,
2013-03-01 18:21:00,39.0,33.0,29.76,WSW,247,8.0,9.0,80,0.00,,,0.00,Rainwise IP-100,2013-03-01 23:21:00,
2013-03-01 18:26:00,39.0,33.0,29.77,WSW,247,2.0,9.0,81,0.00,,,0.00,Rainwise IP-100,2013-03-01 23:26:00,
2013-03-01 18:31:00,39.0,33.0,29.77,WSW,247,4.0,9.0,80,0.00,,,0.00,Rainwise IP-100,2013-03-01 23:31:00,
2013-03-01 18:36:00,39.0,33.0,29.78,WSW,247,4.0,7.0,81,0.00,,,0.00,Rainwise IP-100,2013-03-01 23:36:00,
2013-03-01 18:41:00,39.0,33.0,29.78,WSW,247,5.0,7.0,81,0.00,,,0.00,Rainwise IP-100,2013-03-01 23:41:00,
2013-03-01 18:46:00,39.0,33.0,29.78,WSW,247,2.0,10.0,81,0.00,,,0.00,Rainwise IP-100,2013-03-01 23:46:00,
2013-03-01 18:51:00,39.0,33.0,29.78,WSW,247,1.0,10.0,78,0.00,,,0.00,Rainwise IP-100,2013-03-01 23:51:00,
2013-03-01 18:56:00,39.0,33.0,29.78,WSW,247,5.0,10.0,78,0.00,,,0.00,Rainwise IP-100,2013-03-01 23:56:00,
2013-03-01 19:01:00,39.0,33.0,29.78,WSW,247,1.0,10.0,78,0.00,,,0.00,Rainwise IP-100,2013-03-02 00:01:00,
2013-03-01 19:06:00,39.0,32.0,29.78,WSW,247,9.0,10.0,76,0.00,,,0.00,Rainwise IP-100,2013-03-02 00:06:00,
2013-03-01 19:11:00,39.0,32.0,29.78,WSW,247,6.0,18.0,75,0.00,,,0.00,Rainwise IP-100,2013-03-02 00:11:00,
2013-03-01 19:16:00,39.0,32.0,29.78,WSW,247,6.0,12.0,75,0.00,,,0.00,Rainwise IP-100,2013-03-02 00:16:00,
2013-03-01 19:21:00,39.0,32.0,29.78,WSW,247,6.0,15.0,75,0.00,,,0.00,Rainwise IP-100,2013-03-02 00:21:00,
2013-03-01 19:26:00,39.0,32.0,29.79,WSW,247,7.0,11.0,76,0.00,,,0.00,Rainwise IP-100,2013-03-02 00:26:00,
2013-03-01 19:31:00,39.0,32.0,29.79,WSW,247,6.0,9.0,76,0.00,,,0.00,Rainwise IP-100,2013-03-02 00:31:00,
2013-03-01 19:36:00,39.0,32.0,29.79,WSW,247,5.0,13.0,76,0.00,,,0.00,Rainwise IP-100,2013-03-02 00:36:00,
2013-03-01 19:41:00,39.0,33.0,29.79,WSW,247,5.0,12.0,78,0.00,,,0.00,Rainwise IP-100,2013-03-02 00:41:00,
2013-03-01 19:46:00,39.0,32.0,29.79,WSW,247,6.0,9.0,77,0.00,,,0.00,Rainwise IP-100,2013-03-02 00:46:00,
2013-03-01 19:51:00,39.0,32.0,29.79,WSW,247,7.0,10.0,76,0.00,,,0.00,Rainwise IP-100,2013-03-02 00:51:00,
2013-03-01 19:56:00,39.0,32.0,29.79,WSW,247,6.0,10.0,77,0.00,,,0.00,Rainwise IP-100,2013-03-02 00:56:00,
2013-03-01 20:01:00,39.0,32.0,29.79,WSW,247,7.0,13.0,76,0.00,,,0.00,Rainwise IP-100,2013-03-02 01:01:00,
2013-03-01 20:06:00,39.0,32.0,29.79,WSW,247,10.0,12.0,76,0.00,,,0.00,Rainwise IP-100,2013-03-02 01:06:00,
2013-03-01 20:11:00,39.0,32.0,29.79,SSW,202,7.0,15.0,75,0.00,,,0.00,Rainwise IP-100,2013-03-02 01:11:00,
2013-03-01 20:16:00,38.0,31.0,29.79,WSW,247,3.0,16.0,75,0.00,,,0.00,Rainwise IP-100,2013-03-02 01:16:00,
2013-03-01 20:21:00,38.0,31.0,29.79,WSW,247,5.0,11.0,75,0.00,,,0.00,Rainwise IP-100,2013-03-02 01:21:00,
2013-03-01 20:26:00,38.0,31.0,29.80,WSW,247,7.0,17.0,75,0.00,,,0.00,Rainwise IP-100,2013-03-02 01:26:00,
2013-03-01 20:31:00,38.0,31.0,29.80,WSW,247,4.0,12.0,75,0.00,,,0.00,Rainwise IP-100,2013-03-02 01:31:00,
2013-03-01 20:36:00,38.0,31.0,29.80,WSW,247,5.0,10.0,75,0.00,,,0.00,Rainwise IP-100,2013-03-02 01:36:00,
2013-03-01 20:41:00,38.0,32.0,29.80,WSW,247,2.0,12.0,78,0.00,,,0.00,Rainwise IP-100,2013-03-02 01:41:00,
2013-03-01 20:46:00,38.0,31.0,29.80,SSW,202,5.0,12.0,76,0.00,,,0.00,Rainwise IP-100,2013-03-02 01:46:00,
2013-03-01 20:51:00,38.0,31.0,29.80,WSW,247,6.0,17.0,76,0.00,,,0.00,Rainwise IP-100,2013-03-02 01:51:00,
2013-03-01 20:56:00,38.0,31.0,29.80,WSW,247,9.0,18.0,75,0.00,,,0.00,Rainwise IP-100,2013-03-02 01:56:00,
2013-03-01 21:01:00,38.0,31.0,29.80,WSW,247,3.0,17.0,76,0.00,,,0.00,Rainwise IP-100,2013-03-02 02:01:00,
2013-03-01 21:06:00,38.0,31.0,29.80,WSW,247,6.0,9.0,76,0.00,,,0.00,Rainwise IP-100,2013-03-02 02:06:00,
2013-03-01 21:11:00,38.0,32.0,29.80,SSW,202,1.0,13.0,77,0.00,,,0.00,Rainwise IP-100,2013-03-02 02:11:00,
2013-03-01 21:16:00,38.0,31.0,29.80,SSW,202,3.0,15.0,76,0.00,,,0.00,Rainwise IP-100,2013-03-02 02:16:00,
2013-03-01 21:21:00,37.0,31.0,29.80,SSW,202,10.0,18.0,77,0.00,,,0.00,Rainwise IP-100,2013-03-02 02:21:00,
2013-03-01 21:26:00,37.0,31.0,29.81,SSW,202,8.0,12.0,77,0.00,,,0.00,Rainwise IP-100,2013-03-02 02:26:00,
2013-03-01 21:31:00,37.0,31.0,29.81,WSW,247,5.0,9.0,77,0.00,,,0.00,Rainwise IP-100,2013-03-02 02:31:00,
2013-03-01 21:36:00,37.0,31.0,29.82,WSW,247,6.0,8.0,79,0.00,,,0.00,Rainwise IP-100,2013-03-02 02:36:00,
2013-03-01 21:41:00,37.0,31.0,29.82,WSW,247,3.0,9.0,79,0.00,,,0.00,Rainwise IP-100,2013-03-02 02:41:00,
2013-03-01 21:46:00,37.0,32.0,29.82,WSW,247,9.0,9.0,80,0.00,,,0.00,Rainwise IP-100,2013-03-02 02:46:00,
2013-03-01 21:51:00,37.0,31.0,29.82,WSW,247,10.0,12.0,79,0.00,,,0.00,Rainwise IP-100,2013-03-02 02:51:00,
2013-03-01 21:56:00,37.0,31.0,29.82,WSW,247,2.0,13.0,79,0.00,,,0.00,Rainwise IP-100,2013-03-02 02:56:00,
2013-03-01 22:01:00,37.0,32.0,29.82,WSW,247,5.0,9.0,80,0.00,,,0.00,Rainwise IP-100,2013-03-02 03:01:00,
2013-03-01 22:06:00,37.0,32.0,29.82,WSW,247,3.0,7.0,81,0.00,,,0.00,Rainwise IP-100,2013-03-02 03:06:00,
2013-03-01 22:11:00,37.0,32.0,29.82,WSW,247,3.0,9.0,81,0.00,,,0.00,Rainwise IP-100,2013-03-02 03:11:00,
2013-03-01 22:16:00,37.0,32.0,29.82,WSW,247,6.0,7.0,82,0.00,,,0.00,Rainwise IP-100,2013-03-02 03:16:00,
2013-03-01 22:21:00,36.0,31.0,29.82,WSW,247,0.0,7.0,83,0.00,,,0.00,Rainwise IP-100,2013-03-02 03:21:00,
2013-03-01 22:26:00,36.0,31.0,29.82,WSW,247,9.0,11.0,82,0.00,,,0.00,Rainwise IP-100,2013-03-02 03:26:00,
2013-03-01 22:31:00,36.0,31.0,29.82,WSW,247,9.0,9.0,83,0.00,,,0.00,Rainwise IP-100,2013-03-02 03:31:00,
2013-03-01 22:36:00,36.0,32.0,29.83,SW,225,3.0,9.0,84,0.00,,,0.00,Rainwise IP-100,2013-03-02 03:36:00,
2013-03-01 22:41:00,36.0,32.0,29.83,WSW,247,1.0,8.0,84,0.00,,,0.00,Rainwise IP-100,2013-03-02 03:41:00,
2013-03-01 22:46:00,36.0,31.0,29.83,SW,225,2.0,10.0,82,0.00,,,0.00,Rainwise IP-100,2013-03-02 03:46:00,
2013-03-01 22:51:00,36.0,32.0,29.83,SSW,202,2.0,12.0,85,0.00,,,0.00,Rainwise IP-100,2013-03-02 03:51:00,
2013-03-01 22:56:00,36.0,32.0,29.83,SSW,202,1.0,10.0,84,0.00,,,0.00,Rainwise IP-100,2013-03-02 03:56:00,
2013-03-01 23:01:00,36.0,31.0,29.83,SSW,202,4.0,10.0,83,0.00,,,0.00,Rainwise IP-100,2013-03-02 04:01:00,
2013-03-01 23:06:00,36.0,32.0,29.82,SSW,202,6.0,10.0,84,0.00,,,0.00,Rainwise IP-100,2013-03-02 04:06:00,
2013-03-01 23:11:00,36.0,31.0,29.82,SSW,202,3.0,13.0,83,0.00,,,0.00,Rainwise IP-100,2013-03-02 04:11:00,
2013-03-01 23:16:00,36.0,32.0,29.82,SSW,202,5.0,9.0,84,0.00,,,0.00,Rainwise IP-100,2013-03-02 04:16:00,
2013-03-01 23:21:00,35.0,31.0,29.82,SSW,202,7.0,9.0,84,0.00,,,0.00,Rainwise IP-100,2013-03-02 04:21:00,
2013-03-01 23:26:00,35.0,31.0,29.82,WSW,247,5.0,10.0,84,0.00,,,0.00,Rainwise IP-100,2013-03-02 04:26:00,
2013-03-01 23:31:00,35.0,31.0,29.82,WSW,247,6.0,10.0,84,0.00,,,0.00,Rainwise IP-100,2013-03-02 04:31:00,
2013-03-01 23:36:00,35.0,31.0,29.82,WSW,247,1.0,9.0,84,0.00,,,0.00,Rainwise IP-100,2013-03-02 04:36:00,
2013-03-01 23:41:00,35.0,31.0,29.82,WSW,247,1.0,10.0,84,0.00,,,0.00,Rainwise IP-100,2013-03-02 04:41:00,
2013-03-01 23:46:00,35.0,31.0,29.82,WSW,247,5.0,11.0,84,0.00,,,0.00,Rainwise IP-100,2013-03-02 04:46:00,
2013-03-01 23:51:00,35.0,31.0,29.82,WSW,247,6.0,14.0,84,0.00,,,0.00,Rainwise IP-100,2013-03-02 04:51:00,
2013-03-01 23:56:00,35.0,31.0,29.82,WSW,247,5.0,12.0,84,0.00,,,0.00,Rainwise IP-100,2013-03-02 04:56:00,